Location: Pella
(41.4080°N, 92.9160°W)
Time: 08:39:33
(UTC-05:00)

Iridium 91 - Visible Passes

Search period start: 01 May 2016 00:00
Search period end: 11 May 2016 00:00
Orbit: 776 x 779 km, 86.4° (Epoch: 30 April)

Date Brightness Start Highest point End Pass type
(mag) Time Alt. Az. Time Alt. Az. Time Alt. Az.
01 May 5.7 04:45:27 10° N 04:50:41 75° E 04:55:53 10° S visible
02 May 6.8 04:12:09 10° NNE 04:17:04 40° E 04:21:57 10° SSE visible
03 May 7.7 03:39:15 10° NNE 03:43:20 23° ENE 03:47:23 10° SE visible
03 May 6.0 05:19:19 10° NNW 05:24:12 41° W 05:29:03 10° SSW visible
04 May 8.3 03:07:17 10° NE 03:09:27 12° ENE 03:11:36 10° E visible
04 May 5.5 04:45:34 10° N 04:50:47 77° W 04:55:59 10° S visible
05 May 6.1 04:12:05 10° N 04:17:15 58° E 04:22:23 10° SSE visible
06 May 7.1 03:38:56 10° NNE 03:43:35 32° E 03:48:12 10° SE visible
06 May 6.5 05:19:45 10° NNW 05:24:11 29° W 05:28:36 10° SW visible
07 May 8.0 03:06:15 10° NNE 03:09:47 18° ENE 03:13:17 10° ESE visible
07 May 5.7 04:45:46 10° NNW 04:50:50 53° W 04:55:53 10° SSW visible
08 May 5.5 04:12:07 10° N 04:17:23 85° E 04:22:31 10° S visible
09 May 6.5 03:38:46 10° N 03:43:47 46° E 03:48:37 11° SSE visible
09 May 6.9 05:20:22 10° NW 05:24:08 20° W 05:27:52 10° SW visible
10 May 7.4 03:05:46 10° NNE 03:10:04 25° ENE 03:14:22 10° SE visible
10 May 6.2 04:46:06 10° NNW 04:50:51 36° W 04:55:11 12° SSW visible
